TimeEST,TemperatureF,Dew PointF,Humidity,Sea Level PressureIn,VisibilityMPH,Wind Direction,Wind SpeedMPH,Gust SpeedMPH,PrecipitationIn,Events,Conditions,WindDirDegrees,DateUTC
12:05 AM,69.8,64.4,83,29.84,10.0,SSW,4.6,-,N/A,,Mostly Cloudy,200,2012-12-11 05:05:00
12:53 AM,68.0,64.9,90,29.82,8.0,SSW,3.5,-,N/A,,Mostly Cloudy,210,2012-12-11 05:53:00
1:35 AM,66.2,64.4,94,29.82,8.0,SSW,4.6,-,N/A,,Mostly Cloudy,210,2012-12-11 06:35:00
1:40 AM,66.2,64.4,94,29.82,7.0,SSW,4.6,-,N/A,,Scattered Clouds,210,2012-12-11 06:40:00
1:44 AM,66.2,64.4,94,29.82,7.0,SSW,3.5,-,N/A,,Mostly Cloudy,210,2012-12-11 06:44:00
1:53 AM,68.0,64.9,90,29.82,7.0,SSW,4.6,-,N/A,,Mostly Cloudy,210,2012-12-11 06:53:00
2:02 AM,68.0,64.4,88,29.82,7.0,SSW,4.6,-,N/A,,Mostly Cloudy,210,2012-12-11 07:02:00
2:10 AM,68.0,64.4,88,29.82,7.0,SSW,5.8,-,N/A,,Overcast,210,2012-12-11 07:10:00
2:30 AM,66.2,64.4,94,29.82,6.0,SSW,3.5,-,N/A,,Scattered Clouds,200,2012-12-11 07:30:00
2:41 AM,66.2,64.4,94,29.82,6.0,SSW,3.5,-,N/A,,Mostly Cloudy,210,2012-12-11 07:41:00
2:53 AM,66.9,64.9,93,29.82,6.0,Calm,Calm,-,N/A,,Overcast,0,2012-12-11 07:53:00
3:53 AM,66.9,64.9,93,29.83,7.0,WSW,3.5,-,N/A,,Overcast,250,2012-12-11 08:53:00
4:18 AM,66.2,64.4,94,29.85,7.0,SSW,4.6,-,N/A,,Overcast,210,2012-12-11 09:18:00
4:53 AM,66.9,64.9,93,29.85,6.0,WSW,3.5,-,N/A,,Overcast,240,2012-12-11 09:53:00
5:53 AM,66.9,64.9,93,29.88,7.0,West,4.6,-,N/A,,Overcast,270,2012-12-11 10:53:00
6:05 AM,66.2,64.4,94,29.88,7.0,WSW,3.5,-,N/A,,Overcast,250,2012-12-11 11:05:00
6:42 AM,66.2,64.4,94,29.91,8.0,WNW,4.6,-,N/A,,Overcast,290,2012-12-11 11:42:00
6:53 AM,66.9,64.0,90,29.91,8.0,WNW,3.5,-,N/A,,Overcast,300,2012-12-11 11:53:00
7:03 AM,66.2,64.4,94,29.91,9.0,Calm,Calm,-,N/A,,Overcast,0,2012-12-11 12:03:00
7:32 AM,66.2,62.6,88,29.92,8.0,NW,3.5,-,N/A,,Overcast,320,2012-12-11 12:32:00
7:45 AM,66.2,62.6,88,29.93,10.0,NW,5.8,-,N/A,,Overcast,310,2012-12-11 12:45:00
7:53 AM,66.0,62.1,87,29.92,10.0,NW,5.8,-,N/A,,Overcast,320,2012-12-11 12:53:00
8:00 AM,66.2,62.6,88,29.93,8.0,NW,4.6,-,N/A,,Overcast,310,2012-12-11 13:00:00
8:18 AM,66.2,62.6,88,29.93,10.0,Calm,Calm,-,N/A,,Overcast,0,2012-12-11 13:18:00
8:53 AM,66.9,62.1,84,29.93,10.0,NW,4.6,-,N/A,,Partly Cloudy,310,2012-12-11 13:53:00
9:24 AM,66.2,60.8,83,29.95,10.0,NW,4.6,-,N/A,,Mostly Cloudy,310,2012-12-11 14:24:00
9:42 AM,66.2,60.8,83,29.97,10.0,NNW,11.5,-,N/A,,Overcast,330,2012-12-11 14:42:00
9:53 AM,63.0,57.9,84,29.97,8.0,NNW,9.2,-,N/A,,Overcast,340,2012-12-11 14:53:00
10:09 AM,62.6,55.4,77,29.99,8.0,NNW,11.5,-,N/A,,Overcast,330,2012-12-11 15:09:00
10:53 AM,62.1,55.9,80,29.99,9.0,NNW,10.4,-,N/A,,Overcast,330,2012-12-11 15:53:00
12:26 PM,62.6,55.4,77,29.98,10.0,NNW,4.6,-,N/A,,Overcast,340,2012-12-11 17:26:00
12:53 PM,61.0,55.0,81,29.98,10.0,NNW,4.6,-,N/A,,Overcast,330,2012-12-11 17:53:00
1:53 PM,61.0,54.0,78,29.98,10.0,NNW,5.8,-,N/A,,Overcast,330,2012-12-11 18:53:00
2:53 PM,60.1,55.9,86,29.98,7.0,NNW,5.8,-,0.00,Rain,Light Rain,340,2012-12-11 19:53:00
3:12 PM,60.8,55.4,82,29.98,5.0,NNW,5.8,-,0.02,Rain,Light Rain,330,2012-12-11 20:12:00
3:53 PM,60.1,55.9,86,29.99,9.0,Calm,Calm,-,0.02,,Overcast,0,2012-12-11 20:53:00
4:53 PM,59.0,55.9,90,29.99,7.0,Calm,Calm,-,0.00,,Overcast,0,2012-12-11 21:53:00
5:37 PM,59.0,55.4,88,30.00,8.0,Calm,Calm,-,N/A,,Overcast,0,2012-12-11 22:37:00
5:53 PM,59.0,55.9,90,30.00,8.0,Calm,Calm,-,N/A,,Overcast,0,2012-12-11 22:53:00
6:42 PM,57.2,55.4,94,30.03,9.0,NW,5.8,-,N/A,,Overcast,320,2012-12-11 23:42:00
6:53 PM,57.9,55.0,90,30.01,8.0,North,4.6,-,0.00,Rain,Light Rain,350,2012-12-11 23:53:00
7:53 PM,57.0,55.0,93,30.03,8.0,WNW,3.5,-,0.00,,Mostly Cloudy,300,2012-12-12 00:53:00
8:46 PM,57.2,53.6,88,30.05,9.0,NNW,3.5,-,N/A,,Mostly Cloudy,330,2012-12-12 01:46:00
8:53 PM,57.0,54.0,89,30.04,8.0,North,4.6,-,N/A,,Mostly Cloudy,360,2012-12-12 01:53:00
9:34 PM,55.4,51.8,88,30.07,9.0,NNW,5.8,-,N/A,,Overcast,340,2012-12-12 02:34:00
9:53 PM,55.0,52.0,89,30.06,8.0,North,4.6,-,N/A,,Overcast,10,2012-12-12 02:53:00
10:21 PM,55.4,51.8,88,30.10,10.0,NNW,4.6,-,N/A,,Overcast,340,2012-12-12 03:21:00
10:53 PM,55.0,50.0,83,30.09,10.0,North,4.6,-,N/A,,Overcast,360,2012-12-12 03:53:00
11:53 PM,54.0,46.9,77,30.11,10.0,NNW,5.8,-,N/A,,Overcast,340,2012-12-12 04:53:00